Weather History for Angleton, TX

Change the Weather History Date:

Sunday, October 28, 2012

  Actual Average Record
Temperature  
Mean Temperature 56 °F -  
Max Temperature 69 °F 76 °F 86 °F (2004)
Min Temperature 43 °F 59 °F 37 °F (2008)
Degree Days  
Heating Degree Days 10    
Growing Degree Days 6 (Base 50)    
Moisture  
Dew Point 36 °F    
Average Humidity 56    
Maximum Humidity 86    
Minimum Humidity 23    
Precipitation  
Precipitation 0.00 in - - ()
Sea Level Pressure  
Sea Level Pressure 30.18 in    
Wind  
Wind Speed 7 mph (North)    
Max Wind Speed 17 mph    
Max Gust Speed 21 mph    
Visibility 10 miles    
Events      
Averages and records for this station are not official NWS values.
T = Trace of Precipitation, MM = Missing Value Source: NWS Daily Summary

Daily Weather History Graph

Daily Weather History Graph

Search for Another Location

Airport:

Trip Planner

Search our weather history database for the weather conditions in past years. The results will help you decide how hot, cold, wet, or windy it might be!

Date:

Astronomy

Oct. 28, 2012 Rise Set
Actual Time 7:32 AM CDT 6:38 PM CDT
Civil Twilight 7:07 AM CDT 7:03 PM CDT
Nautical Twilight 6:39 AM CDT 7:30 PM CDT
Astronomical Twilight 6:12 AM CDT 7:58 PM CDT
Moon 5:56 PM CDT (10/28) 6:28 AM CDT (10/28)
Length of Visible Light 11h 55m
Length of Day
11h 06m
Waxing Gibbous, 99% of the Moon is Illuminated
Oct 28
Waxing Gibbous
Oct 29
Full
Nov 6
Last Quarter
Nov 13
New
Nov 20
First Quarter

Hourly Weather History & Observations

Time (CDT) Temp. Windchill Dew Point Humidity Pressure Visibility Wind Dir Wind Speed Gust Speed Precip Events Conditions
1:53 AM 53.1 °F - 41.0 °F 64% 30.17 in 10.0 mi North 5.8 mph - N/A   Overcast
2:53 AM 48.9 °F - 41.0 °F 74% 30.17 in 10.0 mi North 5.8 mph - N/A   Scattered Clouds
3:53 AM 51.1 °F - 39.9 °F 66% 30.16 in 10.0 mi North 8.1 mph - N/A   Overcast
4:53 AM 52.0 °F - 39.9 °F 63% 30.17 in 10.0 mi North 8.1 mph - N/A   Overcast
5:53 AM 46.9 °F - 39.0 °F 74% 30.18 in 10.0 mi North 5.8 mph - N/A   Clear
6:53 AM 43.0 °F 39.5 °F 37.9 °F 82% 30.19 in 10.0 mi North 5.8 mph - N/A   Clear
7:53 AM 43.0 °F 39.5 °F 37.9 °F 82% 30.21 in 10.0 mi North 5.8 mph - N/A   Clear
8:53 AM 51.1 °F - 39.9 °F 66% 30.23 in 10.0 mi North 8.1 mph - N/A   Clear
9:53 AM 55.9 °F - 37.0 °F 49% 30.24 in 10.0 mi NNE 11.5 mph - N/A   Clear
10:53 AM 60.1 °F - 33.1 °F 36% 30.24 in 10.0 mi NNE 17.3 mph - N/A   Clear
12:53 PM 66.0 °F - 32.0 °F 28% 30.21 in 10.0 mi NNE 10.4 mph 19.6 mph N/A   Clear
1:53 PM 66.9 °F - 30.0 °F 25% 30.18 in 10.0 mi North 12.7 mph - N/A   Clear
2:53 PM 68.0 °F - 30.0 °F 24% 30.15 in 10.0 mi North 12.7 mph 20.7 mph N/A   Clear
3:53 PM 68.0 °F - 28.9 °F 23% 30.14 in 10.0 mi North 13.8 mph 18.4 mph N/A   Clear
4:53 PM 68.0 °F - 30.0 °F 24% 30.14 in 10.0 mi North 9.2 mph - N/A   Clear
5:53 PM 66.0 °F - 30.0 °F 26% 30.14 in 10.0 mi NNW 4.6 mph - N/A   Clear
6:53 PM 55.9 °F - 37.0 °F 49% 30.16 in 10.0 mi Calm Calm - N/A   Clear
7:53 PM 51.1 °F - 37.9 °F 61% 30.17 in 10.0 mi Calm Calm - N/A   Clear
8:53 PM 48.0 °F - 37.9 °F 68% 30.19 in 10.0 mi Calm Calm - N/A   Clear
9:53 PM 46.9 °F - 37.9 °F 71% 30.20 in 10.0 mi Calm Calm - N/A   Clear
10:53 PM 43.0 °F - 39.0 °F 86% 30.21 in 10.0 mi Calm Calm - N/A   Clear
11:53 PM 43.0 °F - 37.9 °F 82% 30.22 in 10.0 mi Calm Calm - N/A   Clear